Weather History for Provincetown, MA

Change the Weather History Date:

Saturday, March 2, 2013

  Actual Average Record
Temperature  
Mean Temperature 37 °F -  
Max Temperature 39 °F 39 °F 50 °F (1952)
Min Temperature 35 °F 28 °F 18 °F (1953)
Degree Days  
Heating Degree Days 28    
Moisture  
Dew Point 30 °F    
Average Humidity 76    
Maximum Humidity 93    
Minimum Humidity 65    
Precipitation  
Precipitation 0.00 in - - ()
Sea Level Pressure  
Sea Level Pressure 29.65 in    
Wind  
Wind Speed 11 mph (NW)    
Max Wind Speed 15 mph    
Max Gust Speed 18 mph    
Visibility 10 miles    
Events      
Averages and records for this station are not official NWS values.
T = Trace of Precipitation, MM = Missing Value Source: NWS Daily Summary

Daily Weather History Graph

Daily Weather History Graph

Search for Another Location

Airport:

Trip Planner

Search our weather history database for the weather conditions in past years. The results will help you decide how hot, cold, wet, or windy it might be!

Date:

Astronomy

Mar. 02, 2013 Rise Set
Actual Time 6:14 AM EST 5:32 PM EST
Civil Twilight 5:46 AM EST 6:00 PM EST
Nautical Twilight 5:13 AM EST 6:32 PM EST
Astronomical Twilight 4:41 AM EST 7:05 PM EST
Moon 11:15 PM EST (3/2) 8:33 AM EST (3/2)
Length of Visible Light 12h 14m
Length of Day
11h 18m
Waning Gibbous, 74% of the Moon is Illuminated
Mar 2
Waning Gibbous
Mar 4
Last Quarter
Mar 11
New
Mar 19
First Quarter
Mar 27
Full

Hourly Weather History & Observations

Time (EST) Temp. Windchill Dew Point Humidity Pressure Visibility Wind Dir Wind Speed Gust Speed Precip Events Conditions
12:35 AM 37.4 °F 29.8 °F 33.8 °F 87% 29.66 in 10.0 mi NNW 11.5 mph 17.3 mph N/A   Mostly Cloudy
12:55 AM 35.6 °F 27.1 °F 30.2 °F 81% 29.65 in 10.0 mi NNW 12.7 mph - N/A   Overcast
1:35 AM 37.4 °F 28.9 °F 30.2 °F 75% 29.65 in 10.0 mi NW 13.8 mph - N/A   Overcast
1:55 AM 37.4 °F 28.5 °F 30.2 °F 75% 29.65 in 10.0 mi NW 15.0 mph - N/A   Overcast
2:15 AM 37.4 °F 28.5 °F 28.4 °F 70% 29.65 in 10.0 mi NNW 15.0 mph - N/A   Overcast
2:55 AM 35.6 °F 27.5 °F 28.4 °F 75% 29.65 in 10.0 mi NNW 11.5 mph 17.3 mph N/A   Overcast
3:15 AM 35.6 °F 27.1 °F 30.2 °F 81% 29.65 in 10.0 mi NW 12.7 mph - N/A   Overcast
3:35 AM 35.6 °F 26.6 °F 30.2 °F 81% 29.65 in 10.0 mi NNW 13.8 mph - N/A   Overcast
3:55 AM 35.6 °F 26.6 °F 30.2 °F 81% 29.65 in 10.0 mi NW 13.8 mph - N/A   Overcast
4:15 AM 35.6 °F 27.1 °F 28.4 °F 75% 29.65 in 10.0 mi NNW 12.7 mph - N/A   Overcast
4:35 AM 35.6 °F 26.6 °F 30.2 °F 81% 29.66 in 10.0 mi NW 13.8 mph - N/A   Overcast
4:55 AM 35.6 °F 27.1 °F 30.2 °F 81% 29.66 in 10.0 mi NW 12.7 mph - N/A   Overcast
5:15 AM 35.6 °F 26.2 °F 28.4 °F 75% 29.66 in 10.0 mi NNW 15.0 mph - N/A   Overcast
5:35 AM 35.6 °F 27.1 °F 28.4 °F 75% 29.66 in 10.0 mi NNW 12.7 mph 17.3 mph N/A   Overcast
6:15 AM 35.6 °F 27.5 °F 28.4 °F 75% 29.66 in 10.0 mi NNW 11.5 mph 16.1 mph N/A   Overcast
6:35 AM 35.6 °F 27.1 °F 30.2 °F 81% 29.66 in 10.0 mi NNW 12.7 mph - N/A   Overcast
6:55 AM 35.6 °F 26.6 °F 28.4 °F 75% 29.66 in 10.0 mi NW 13.8 mph 18.4 mph N/A   Overcast
7:55 AM 35.6 °F 26.6 °F 28.4 °F 75% 29.67 in 10.0 mi NW 13.8 mph - N/A   Overcast
8:15 AM 35.6 °F 26.6 °F 28.4 °F 75% 29.67 in 10.0 mi NW 13.8 mph - N/A   Mostly Cloudy
8:35 AM 37.4 °F 28.9 °F 26.6 °F 65% 29.67 in 10.0 mi NW 13.8 mph 17.3 mph N/A   Partly Cloudy
8:55 AM 37.4 °F 29.8 °F 28.4 °F 70% 29.67 in 10.0 mi NW 11.5 mph - N/A   Clear
9:15 AM 37.4 °F 29.3 °F 28.4 °F 70% 29.67 in 10.0 mi NW 12.7 mph - N/A   Clear
9:35 AM 37.4 °F 29.8 °F 28.4 °F 70% 29.67 in 10.0 mi NW 11.5 mph - N/A   Mostly Cloudy
9:55 AM 37.4 °F 29.8 °F 26.6 °F 65% 29.67 in 10.0 mi NW 11.5 mph - N/A   Overcast
10:35 AM 37.4 °F 30.8 °F 28.4 °F 70% 29.68 in 10.0 mi NNW 9.2 mph - N/A   Overcast
10:55 AM 37.4 °F 30.8 °F 28.4 °F 70% 29.68 in 10.0 mi NNW 9.2 mph - N/A   Overcast
11:15 AM 39.2 °F 33.0 °F 28.4 °F 65% 29.67 in 10.0 mi NW 9.2 mph - N/A   Overcast
11:35 AM 39.2 °F 33.6 °F 28.4 °F 65% 29.67 in 10.0 mi NW 8.1 mph - N/A   Mostly Cloudy
11:55 AM 37.4 °F 30.8 °F 30.2 °F 75% 29.66 in 10.0 mi NNW 9.2 mph - N/A   Partly Cloudy
12:15 PM 39.2 °F 32.5 °F 30.2 °F 70% 29.65 in 10.0 mi NNW 10.4 mph - N/A   Partly Cloudy
12:35 PM 39.2 °F 33.0 °F 30.2 °F 70% 29.64 in 10.0 mi NNW 9.2 mph - N/A   Scattered Clouds
1:15 PM 39.2 °F 33.0 °F 30.2 °F 70% 29.65 in 10.0 mi NNW 9.2 mph - N/A   Scattered Clouds
1:35 PM 39.2 °F 35.0 °F 30.2 °F 70% 29.65 in 10.0 mi NW 5.8 mph - N/A   Mostly Cloudy
1:55 PM 39.2 °F 33.6 °F 30.2 °F 70% 29.65 in 10.0 mi NW 8.1 mph - N/A   Scattered Clouds
2:15 PM 39.2 °F 33.6 °F 30.2 °F 70% 29.65 in 10.0 mi NW 8.1 mph - N/A   Clear
2:35 PM 39.2 °F 35.0 °F 30.2 °F 70% 29.65 in 10.0 mi WNW 5.8 mph - N/A   Mostly Cloudy
2:55 PM 37.4 °F 32.1 °F 30.2 °F 75% 29.65 in 10.0 mi WNW 6.9 mph - N/A   Overcast
3:15 PM 37.4 °F 32.8 °F 30.2 °F 75% 29.65 in 10.0 mi WNW 5.8 mph - N/A   Overcast
3:55 PM 37.4 °F 32.8 °F 30.2 °F 75% 29.64 in 10.0 mi NW 5.8 mph - N/A   Overcast
4:15 PM 37.4 °F 32.8 °F 30.2 °F 75% 29.64 in 10.0 mi NW 5.8 mph - N/A   Overcast
4:55 PM 37.4 °F 34.9 °F 30.2 °F 75% 29.64 in 10.0 mi NW 3.5 mph - N/A   Overcast
5:15 PM 37.4 °F 34.9 °F 28.4 °F 70% 29.64 in 10.0 mi North 3.5 mph - N/A   Overcast
5:35 PM 37.4 °F - 30.2 °F 75% 29.64 in 10.0 mi Calm Calm - N/A   Overcast
6:15 PM 37.4 °F - 30.2 °F 75% 29.65 in 10.0 mi Calm Calm - N/A   Overcast
6:35 PM 37.4 °F 31.4 °F 30.2 °F 75% 29.66 in 10.0 mi SW 8.1 mph - N/A   Overcast
6:55 PM 37.4 °F 32.1 °F 32.0 °F 81% 29.66 in 10.0 mi SSW 6.9 mph - N/A   Overcast
7:15 PM 37.4 °F 32.1 °F 32.0 °F 81% 29.66 in 10.0 mi SW 6.9 mph - N/A   Overcast
7:35 PM 37.4 °F 31.4 °F 32.0 °F 81% 29.65 in 10.0 mi SW 8.1 mph - N/A   Overcast
7:55 PM 37.4 °F 32.1 °F 30.2 °F 75% 29.65 in 10.0 mi SSW 6.9 mph - N/A   Overcast
8:15 PM 37.4 °F 32.1 °F 32.0 °F 81% 29.66 in 10.0 mi SSW 6.9 mph - N/A   Overcast
8:55 PM 37.4 °F 32.1 °F 33.8 °F 87% 29.65 in 10.0 mi SW 6.9 mph - N/A   Overcast
9:15 PM 37.4 °F 32.1 °F 32.0 °F 81% 29.66 in 10.0 mi SW 6.9 mph - N/A   Overcast
9:35 PM 37.4 °F 32.1 °F 33.8 °F 87% 29.65 in 10.0 mi SW 6.9 mph - N/A   Overcast
9:55 PM 37.4 °F 32.1 °F 32.0 °F 81% 29.65 in 10.0 mi SW 6.9 mph - N/A   Overcast
10:15 PM 37.4 °F 30.8 °F 33.8 °F 87% 29.64 in 10.0 mi WSW 9.2 mph - N/A   Overcast
10:35 PM 37.4 °F 30.8 °F 32.0 °F 81% 29.63 in 10.0 mi West 9.2 mph - N/A   Overcast
11:15 PM 37.4 °F 30.8 °F 32.0 °F 81% 29.62 in 10.0 mi West 9.2 mph - N/A   Overcast
11:35 PM 37.4 °F 33.8 °F 35.6 °F 93% 29.61 in 10.0 mi West 4.6 mph - N/A   Overcast
11:55 PM 37.4 °F 30.8 °F 33.8 °F 87% 29.62 in 10.0 mi NNE 9.2 mph - N/A   Overcast